sat.trackr.live / text

‹ back to catalog

ONEWEB-0390

NORAD 50470 · 2021-132B

PAYLOAD ACTIVE UNKNOWN

§ Identity

Operator
Country
UK
Launch date
2021-12-27
Launch site
TYMSC
Launch vehicle
Mass (kg)
RCS (m²)

Purposes: comms

External: N2YO · Heavens-Above · Gunter

§ Orbital elements

Epoch: 2026-09-12T23:34:57.914400Z

Period
109.29 min
Inclination
87.9203°
Eccentricity
0.0001621
Mean motion
13.17650399 rev/d
Perigee alt
1,192.5 km
Apogee alt
1,194.9 km
Semi-major
7,571.8 km
B*
5.1719e-5
RAAN
348.4326°
Arg perigee
102.7173°
Mean anomaly
257.4140°
Rev number
22,964

§ Raw data

ONEWEB-03901 50470U 21132B   26255.98261475  .00000033  00000+0  51719-4 0  99992 50470  87.9203 348.4326 0001621 102.7173 257.4140 13.17650399229648

JSON: /api/v1/satellites/50470 · /tle

For live sub-satellite position, see the globe view (requires WebGL).

§ Visibility from observer

Set your observer location to see the next 7 days of passes ≥ 10°. The values pass through the URL so the page stays shareable.

No JS? Fill the form by hand. The geolocation button needs JavaScript.